Weather History for Karup, Denmark

Change the Weather History Date:

Tuesday, November 6, 2012

  Actual Average Record
Temperature  
Mean Temperature 40 °F -  
Max Temperature 48 °F 44 °F 55 °F (2003)
Min Temperature 32 °F 33 °F 28 °F (2002)
Degree Days  
Heating Degree Days 25    
Moisture  
Dew Point 39 °F    
Average Humidity 93    
Maximum Humidity 100    
Minimum Humidity 76    
Precipitation  
Precipitation 0.20 in - - ()
Sea Level Pressure  
Sea Level Pressure 29.64 in    
Wind  
Wind Speed 7 mph ()    
Max Wind Speed 21 mph    
Max Gust Speed 33 mph    
Visibility 6.0 miles    
Events Rain    
Averages and records for this station are not official NWS values.
T = Trace of Precipitation, MM = Missing Value Source: Averaged Metar Reports

Daily Weather History Graph

Daily Weather History Graph

Search for Another Location

Airport:

Trip Planner

Search our weather history database for the weather conditions in past years. The results will help you decide how hot, cold, wet, or windy it might be!

Date:

Astronomy

Nov. 06, 2012 Rise Set
Actual Time 7:42 AM CET 4:30 PM CET
Civil Twilight 7:01 AM CET 5:11 PM CET
Nautical Twilight 6:16 AM CET 5:56 PM CET
Astronomical Twilight 5:33 AM CET 6:40 PM CET
Moon 11:03 PM CET (11/6) 1:19 PM CET (11/6)
Length of Visible Light 10h 09m
Length of Day
8h 47m
Waning Gibbous, 56% of the Moon is Illuminated
Nov 6
Waning Gibbous
Nov 7
Last Quarter
Nov 13
New
Nov 20
First Quarter
Nov 28
Full

Hourly Weather History & Observations

Time (CET) Temp. Windchill Dew Point Humidity Pressure Visibility Wind Dir Wind Speed Gust Speed Precip Events Conditions
12:30 AM 33.8 °F 29.6 °F 33.8 °F 100% 29.68 in 6.2 mi West 4.6 mph - N/A   Partly Cloudy
12:50 AM 33.8 °F 29.6 °F 33.8 °F 100% 29.68 in 6.2 mi West 4.6 mph - N/A   Partly Cloudy
1:00 AM 34 °F - 33 °F 97% 29.70 in 12 mi West 4.6 mph - -   Scattered Clouds
1:20 AM 33.8 °F - 33.8 °F 100% 29.68 in 6.2 mi WSW 2.3 mph - N/A   Mostly Cloudy
1:50 AM 33.8 °F 29.6 °F 33.8 °F 100% 29.68 in 6.2 mi WSW 4.6 mph - N/A   Mostly Cloudy
2:20 AM 35.6 °F 32.8 °F 33.8 °F 93% 29.68 in 6.2 mi WSW 3.5 mph - N/A   Mostly Cloudy
2:50 AM 33.8 °F 30.8 °F 33.8 °F 100% 29.71 in 6.2 mi SW 3.5 mph - N/A   Mostly Cloudy
3:21 AM 35.6 °F 30.7 °F 33.8 °F 93% 29.71 in 6.2 mi WSW 5.8 mph - N/A   Mostly Cloudy
3:52 AM 33.8 °F - 33.8 °F 100% 29.68 in 6.2 mi SW 2.3 mph - N/A   Mostly Cloudy
4:00 AM 33 °F - 33 °F 98% 29.72 in 12 mi SW 3.5 mph - -   Partly Cloudy
4:20 AM 33.8 °F 29.6 °F 33.8 °F 100% 29.68 in 6.2 mi WSW 4.6 mph - N/A   Scattered Clouds
4:50 AM 35.6 °F 29.9 °F 33.8 °F 93% 29.68 in 6.2 mi WSW 6.9 mph - N/A   Partly Cloudy
5:20 AM 33.8 °F 28.6 °F 32.0 °F 93% 29.71 in 6.2 mi WSW 5.8 mph - N/A   Partly Cloudy
5:50 AM 33.8 °F 29.6 °F 33.8 °F 100% 29.71 in - WSW 4.6 mph - N/A   Clear
6:20 AM 33.8 °F 28.6 °F 32.0 °F 93% 29.71 in - WSW 5.8 mph - N/A   Clear
6:50 AM 35.6 °F 30.7 °F 33.8 °F 93% 29.71 in 6.2 mi WSW 5.8 mph - N/A   Mostly Cloudy
7:00 AM 35 °F - 34 °F 92% 29.73 in 12 mi WSW 6.9 mph - -   Scattered Clouds
7:20 AM 35.6 °F 29.9 °F 33.8 °F 93% 29.71 in 6.2 mi WSW 6.9 mph - N/A   Mostly Cloudy
7:50 AM 35.6 °F 29.9 °F 33.8 °F 93% 29.71 in 6.2 mi WSW 6.9 mph - N/A   Mostly Cloudy
8:20 AM 37.4 °F 32.8 °F 35.6 °F 93% 29.71 in 6.2 mi WNW 5.8 mph - N/A Rain Light Rain Showers
8:50 AM 39.2 °F 35.0 °F 37.4 °F 93% 29.71 in 6.2 mi WSW 5.8 mph - N/A   Mostly Cloudy
9:20 AM 39.2 °F 35.0 °F 37.4 °F 93% 29.71 in 6.2 mi SW 5.8 mph - N/A Rain Light Rain Showers
9:50 AM 41.0 °F 36.4 °F 39.2 °F 93% 29.71 in 6.2 mi SW 6.9 mph - N/A   Mostly Cloudy
10:00 AM 41 °F - 39 °F 89% 29.73 in 16 mi SW 6.9 mph - - Rain Light Rain Showers
10:20 AM 42.8 °F 38.0 °F 41.0 °F 93% 29.71 in 6.2 mi WSW 8.1 mph - N/A   Mostly Cloudy
10:50 AM 42.8 °F 36.6 °F 41.0 °F 93% 29.71 in 6.2 mi WSW 11.5 mph - N/A Rain Light Rain Showers
11:20 AM 44.6 °F 40.2 °F 41.0 °F 87% 29.68 in 6.2 mi WSW 8.1 mph - N/A   Mostly Cloudy
11:50 AM 44.6 °F 40.2 °F 42.8 °F 93% 29.68 in 6.2 mi SW 8.1 mph - N/A Rain Light Rain Showers
12:21 PM 44.6 °F 42.2 °F 42.8 °F 93% 29.68 in 6.2 mi SW 4.6 mph - N/A   Mostly Cloudy
12:50 PM 44.6 °F 39.7 °F 42.8 °F 93% 29.68 in 6.2 mi WSW 9.2 mph - N/A   Mostly Cloudy
1:00 PM 45 °F - 43 °F 88% 29.68 in 12 mi SW 9.2 mph - - Rain Light Rain Showers
1:20 PM 44.6 °F 39.2 °F 42.8 °F 93% 29.65 in 6.2 mi WSW 10.4 mph - N/A   Mostly Cloudy
1:50 PM 44.6 °F 39.7 °F 42.8 °F 93% 29.65 in 6.2 mi WSW 9.2 mph - N/A   Mostly Cloudy
2:20 PM 44.6 °F 36.9 °F 41.0 °F 87% 29.65 in 6.2 mi West 18.4 mph - N/A Rain Light Rain
2:50 PM 44.6 °F 38.8 °F 41.0 °F 87% 29.65 in 6.2 mi West 11.5 mph - N/A Rain Light Rain
3:20 PM 42.8 °F 36.2 °F 41.0 °F 93% 29.62 in 4.3 mi WSW 12.7 mph - N/A Rain Light Rain
3:50 PM 42.8 °F 35.8 °F 41.0 °F 93% 29.62 in 4.3 mi WSW 13.8 mph - N/A Rain Light Rain
4:00 PM 43 °F - 41 °F 92% 29.63 in 4 mi SW 12.7 mph - - Rain Light Rain
4:20 PM 42.8 °F 36.2 °F 41.0 °F 93% 29.59 in 6.2 mi SW 12.7 mph - N/A Rain Light Rain
4:51 PM 42.8 °F 35.8 °F 41.0 °F 93% 29.56 in 5.6 mi SW 13.8 mph - N/A Rain Light Rain
5:20 PM 42.8 °F 36.2 °F 42.8 °F 100% 29.56 in 4.3 mi SW 12.7 mph - N/A Rain Light Rain
5:50 PM 42.8 °F 36.6 °F 42.8 °F 100% 29.53 in 3.7 mi SSW 11.5 mph - N/A Rain Light Rain
6:20 PM 44.6 °F 38.8 °F 42.8 °F 93% 29.50 in 2.5 mi SSW 11.5 mph - N/A Rain Light Rain
6:50 PM 44.6 °F 38.8 °F 44.6 °F 100% 29.50 in 2.2 mi SSW 11.5 mph - N/A Rain Light Rain
7:00 PM 46 °F - 45 °F 96% 29.52 in 2 mi SW 10.4 mph - - Rain Light Rain
7:22 PM 48.2 °F - 48.2 °F 100% 29.50 in 2.5 mi West 12.7 mph - N/A Rain Light Rain
7:51 PM 48.2 °F - 48.2 °F 100% 29.50 in 3.1 mi West 15.0 mph - N/A   Mostly Cloudy
8:20 PM 48.2 °F - 46.4 °F 93% 29.50 in 3.1 mi WNW 18.4 mph 33.4 mph N/A Rain Rain
8:50 PM 48.2 °F - 44.6 °F 87% 29.53 in 4.3 mi West 16.1 mph - N/A   Mostly Cloudy
9:20 PM 46.4 °F 39.2 °F 44.6 °F 93% 29.53 in 4.3 mi WNW 18.4 mph 32.2 mph N/A   Mostly Cloudy
9:50 PM 46.4 °F 40.1 °F 42.8 °F 87% 29.56 in 4.3 mi WNW 15.0 mph - N/A   Mostly Cloudy
10:00 PM 46 °F - 43 °F 84% 29.57 in 4 mi WNW 15.0 mph - -   Mist
10:20 PM 46.4 °F 40.4 °F 41.0 °F 81% 29.56 in 5.0 mi WNW 13.8 mph - N/A   Mostly Cloudy
10:50 PM 46.4 °F 40.7 °F 41.0 °F 81% 29.56 in 5.0 mi WNW 12.7 mph - N/A   Mostly Cloudy
11:20 PM 46.4 °F 39.0 °F 39.2 °F 76% 29.59 in 6.2 mi WNW 19.6 mph - N/A   Mostly Cloudy
11:50 PM 44.6 °F 36.4 °F 39.2 °F 81% 29.59 in 6.2 mi WNW 20.7 mph - N/A   Mostly Cloudy